GFSNE_prec_kuchsnow_237.txt.gz
Snowfall_Accumulation
0.0 0.1 0.0 0.0 0.0 0.1 0.1 0.3 3.2 4.4 0.4 0.0 0.0 0.0 0.0 0.0 0.0 0.0 0.0 0.0 0.0 0.0 0.0 0.0 0.0 0.0 0.0 0.0 0.0 0.0 0.0 0.0 0.0 0.0 0.0 0.0 0.0 0.0
0.0 0.0 0.0 0.0 0.0 0.0 0.0 0.1 0.4 1.4 1.4 0.0 0.0 0.0 0.0 0.0 0.0 0.0 0.0 0.0 0.0 0.0 0.0 0.0 0.0 0.0 0.0 0.0 0.0 0.0 0.0 0.0 0.0 0.0 0.0 0.0 0.0 0.0
0.2 0.3 0.2 0.0 0.1 0.0 0.0 0.1 0.1 0.3 0.5 0.0 0.0 0.0 0.0 0.0 0.0 0.0 0.0 0.0 0.0 0.0 0.0 0.0 0.0 0.0 0.0 0.0 0.0 0.0 0.0 0.0 0.0 0.0 0.0 0.0 0.0 0.0
0.5 0.9 1.5 0.8 1.1 0.3 0.2 0.1 0.2 0.2 0.4 0.1 0.4 0.2 0.0 0.0 0.0 0.0 0.0 0.0 0.0 0.0 0.0 0.0 0.1 0.0 0.0 0.0 0.0 0.0 0.1 0.0 0.0 0.0 0.0 0.0 0.0 0.0
3.7 2.5 2.4 1.8 3.6 3.1 2.0 1.1 0.3 0.6 0.9 0.2 0.2 0.0 0.5 0.2 0.1 0.4 0.2 0.1 0.0 0.0 0.0 0.0 0.0 0.0 0.0 0.0 0.0 0.0 0.0 0.1 0.0 0.1 0.1 0.0 0.0 0.0
2.3 2.6 2.9 1.8 4.5 4.7 4.6 5.3 4.0 2.4 1.6 1.6 0.5 0.7 0.8 0.9 1.1 1.1 0.7 0.6 0.4 0.2 0.1 0.0 0.1 0.0 0.0 0.0 0.1 0.0 0.0 0.0 0.1 0.1 0.1 0.1 0.0 0.0
0.4 0.4 0.6 0.4 1.0 2.1 3.4 4.6 3.1 5.4 4.9 3.9 2.4 1.0 2.1 1.1 2.9 3.8 2.6 2.2 1.0 1.5 0.4 0.4 0.0 0.0 0.4 0.2 0.0 0.1 0.0 0.1 0.1 0.1 0.1 0.1 0.0 0.0
5.7 3.3 1.7 0.3 2.0 0.5 0.6 1.9 3.3 5.8 5.9 5.5 6.4 6.4 4.9 4.0 2.6 5.7 6.2 4.4 8.1 4.1 3.9 2.3 0.4 0.6 0.5 1.1 0.6 0.3 0.1 0.2 0.2 0.1 0.1 0.0 0.0 0.2
7.2 7.9 6.1 6.2 4.0 2.5 2.9 1.7 1.5 1.3 4.2 5.3 5.3 6.0 7.6 7.5 6.6 4.6 5.8 9.5 9.0 4.6 4.4 8.5 3.4 2.4 1.6 1.3 1.5 0.3 0.6 0.1 0.2 0.2 0.3 0.1 0.0 0.0
3.7 3.2 1.9 1.7 3.3 2.4 4.3 4.3 2.6 2.7 3.4 5.6 8.4 8.4 9.0 9.5 7.8 8.3 5.8 5.9 10.5 10.2 5.7 11.2 9.5 13.3 8.3 8.7 2.1 1.5 1.9 0.6 0.9 1.0 0.3 0.3 0.3 0.0
1.1 1.0 1.0 0.9 0.7 1.3 1.1 1.0 1.0 1.3 1.0 1.8 3.0 3.1 4.6 3.4 5.5 8.0 16.3 17.3 17.7 13.4 8.9 11.4 11.8 14.0 13.1 9.6 10.4 5.3 5.5 5.9 6.1 2.1 2.3 2.5 2.6 2.6
1.1 0.7 0.4 0.9 1.6 1.8 2.5 2.0 2.2 1.4 1.5 1.5 1.4 0.7 1.6 1.4 1.4 1.9 4.8 11.2 13.5 16.3 12.6 15.4 14.0 15.3 24.7 20.5 17.7 13.3 11.9 12.1 10.7 9.0 6.1 5.4 4.0 3.5
1.7 1.7 1.3 3.5 3.2 1.9 1.4 1.6 2.2 1.9 1.7 1.0 1.0 1.9 1.3 1.4 1.4 0.5 1.6 3.6 7.7 6.7 7.2 14.6 21.8 20.2 26.1 23.9 17.0 14.0 11.3 12.5 13.0 9.1 6.9 6.2 4.7 3.9
7.8 7.6 7.3 5.2 6.1 3.8 3.9 4.7 4.3 5.6 5.2 3.7 5.0 6.9 10.5 7.7 9.4 7.2 8.6 9.0 8.8 11.1 12.3 11.6 18.2 15.7 16.9 17.1 14.3 10.9 9.4 8.3 7.5 9.3 11.3 7.0 6.6 9.3
12.4 11.8 11.2 11.2 11.2 11.4 12.6 12.4 11.4 12.9 13.7 17.5 24.8 24.7 23.4 21.4 19.8 16.8 14.3 13.1 13.6 10.6 11.9 12.0 11.1 11.8 11.9 14.3 11.9 9.7 12.1 9.2 6.2 5.9 8.0 9.1 10.3 10.0
9.1 8.8 9.2 10.9 9.7 13.5 15.4 12.9 15.7 24.2 26.0 29.8 29.3 30.8 27.5 25.8 24.6 21.0 20.4 20.2 20.6 20.1 16.6 14.5 13.8 15.3 18.9 16.7 15.8 15.7 12.8 13.6 10.0 9.6 10.9 12.6 13.5 12.6
10.3 17.4 24.3 19.5 20.6 22.1 23.5 23.5 23.3 23.6 24.9 24.2 23.6 23.0 22.0 20.7 19.6 15.9 15.0 13.7 16.0 13.5 13.8 14.3 12.1 11.4 10.5 12.2 16.5 13.7 13.3 12.6 11.0 12.8 11.8 15.3 14.3 13.3
20.4 22.8 23.3 22.3 20.1 19.9 20.1 19.7 18.2 16.5 15.0 13.3 12.7 12.0 12.0 11.0 10.1 8.3 7.7 9.0 9.1 7.5 7.0 7.2 8.8 10.6 11.0 9.3 7.0 10.3 9.2 8.7 8.5 8.2 8.4 12.9 14.2 15.0
16.9 13.7 15.7 14.9 12.9 10.8 9.9 9.4 11.5 10.1 6.4 7.5 7.6 6.4 4.6 4.5 5.3 4.4 4.0 3.9 5.0 4.0 3.2 4.1 5.2 6.9 9.3 9.5 6.2 4.1 7.0 5.4 5.9 6.7 5.2 6.6 10.6 10.7
9.5 8.3 8.6 7.3 6.4 6.0 5.6 5.7 6.8 5.8 5.5 3.8 3.9 3.5 4.1 4.4 4.2 3.5 2.7 3.6 2.9 2.5 2.8 2.1 1.6 2.6 7.1 10.8 9.8 3.7 3.0 7.8 4.9 4.4 4.6 5.5 5.0 5.9
6.9 6.3 5.5 5.4 6.3 6.0 5.1 4.9 6.3 6.8 4.3 7.4 5.6 6.6 7.3 7.5 5.8 3.9 5.4 5.3 5.3 4.7 3.5 1.4 0.3 1.3 3.1 5.1 9.8 4.6 2.8 2.2 2.1 2.4 4.3 6.4 5.2 6.4
6.4 6.1 4.5 5.2 4.4 4.6 5.4 5.2 5.4 5.9 6.7 6.9 5.3 4.3 5.1 4.7 5.4 3.8 4.0 4.5 3.6 3.2 1.9 1.6 1.8 2.9 4.3 3.8 4.5 4.4 2.5 4.6 2.6 1.7 2.5 4.1 8.8 12.4
5.4 4.5 4.5 4.4 3.8 4.1 4.4 4.9 4.3 3.9 4.5 6.0 4.6 4.0 4.7 5.6 4.1 4.1 3.9 3.7 4.1 3.8 3.7 4.8 3.8 3.0 2.9 2.6 4.1 5.4 3.1 4.9 4.3 5.9 6.0 3.5 3.6 2.4

GFSNE_prec_kuchsnow_243.txt.gz
Snowfall_Accumulation
0.0 0.1 0.0 0.0 0.0 0.1 0.1 0.3 3.2 4.4 0.4 0.0 0.0 0.0 0.0 0.0 0.0 0.0 0.0 0.0 0.0 0.0 0.0 0.0 0.0 0.0 0.0 0.0 0.0 0.0 0.0 0.0 0.0 0.0 0.0 0.0 0.0 0.0
0.0 0.0 0.0 0.0 0.0 0.0 0.0 0.1 0.4 1.4 1.4 0.0 0.0 0.0 0.0 0.0 0.0 0.0 0.0 0.0 0.0 0.0 0.0 0.0 0.0 0.0 0.0 0.0 0.0 0.0 0.0 0.0 0.0 0.0 0.0 0.0 0.0 0.0
0.2 0.3 0.2 0.0 0.1 0.0 0.0 0.1 0.1 0.3 0.5 0.0 0.0 0.0 0.0 0.0 0.0 0.0 0.0 0.0 0.0 0.0 0.0 0.0 0.0 0.0 0.0 0.0 0.0 0.0 0.0 0.0 0.0 0.0 0.0 0.0 0.0 0.0
0.5 0.9 1.5 0.8 1.1 0.3 0.2 0.1 0.2 0.2 0.4 0.1 0.4 0.2 0.0 0.0 0.0 0.0 0.0 0.0 0.0 0.0 0.0 0.0 0.1 0.0 0.0 0.0 0.0 0.0 0.1 0.0 0.0 0.0 0.0 0.0 0.0 0.0
3.7 2.5 2.4 1.8 3.6 3.1 2.0 1.1 0.3 0.6 0.9 0.2 0.2 0.0 0.5 0.2 0.1 0.4 0.2 0.1 0.0 0.0 0.0 0.0 0.0 0.0 0.0 0.0 0.0 0.0 0.0 0.1 0.0 0.1 0.1 0.0 0.0 0.0
2.3 2.6 2.9 1.8 4.5 4.7 4.6 5.3 4.0 2.4 1.6 1.6 0.5 0.7 0.8 0.9 1.1 1.1 0.7 0.6 0.4 0.2 0.1 0.0 0.1 0.0 0.0 0.0 0.1 0.0 0.0 0.0 0.1 0.1 0.1 0.1 0.0 0.0
0.4 0.4 0.6 0.4 1.0 2.1 3.4 4.6 3.1 5.4 4.9 3.9 2.4 1.0 2.1 1.1 2.9 3.8 2.6 2.2 1.0 1.5 0.4 0.4 0.0 0.0 0.4 0.2 0.0 0.1 0.0 0.1 0.1 0.1 0.1 0.1 0.0 0.0
5.7 3.3 1.7 0.3 2.0 0.5 0.6 1.9 3.3 5.8 5.9 5.5 6.4 6.4 4.9 4.0 2.6 5.7 6.2 4.4 8.1 4.1 3.9 2.3 0.4 0.6 0.5 1.1 0.6 0.3 0.1 0.2 0.2 0.1 0.1 0.0 0.0 0.2
7.2 7.9 6.1 6.2 4.0 2.5 2.9 1.7 1.5 1.3 4.2 5.3 5.3 6.0 7.6 7.5 6.6 4.6 5.8 9.5 9.0 4.6 4.4 8.5 3.4 2.4 1.6 1.3 1.5 0.3 0.6 0.1 0.2 0.2 0.3 0.1 0.0 0.0
3.7 3.2 1.9 1.7 3.3 2.4 4.3 4.3 2.6 2.7 3.4 5.6 8.4 8.4 9.0 9.5 7.8 8.3 5.8 5.9 10.5 10.2 5.7 11.2 9.5 13.3 8.3 8.7 2.1 1.5 1.9 0.6 0.9 1.0 0.3 0.3 0.3 0.0
1.1 1.0 1.0 0.9 0.7 1.3 1.1 1.0 1.0 1.3 1.0 1.8 3.0 3.1 4.6 3.4 5.5 8.0 16.3 17.3 17.7 13.4 8.9 11.4 11.8 14.0 13.1 9.6 10.4 5.3 5.5 5.9 6.1 2.1 2.3 2.5 2.6 2.6
1.1 0.7 0.4 0.9 1.6 1.8 2.5 2.0 2.2 1.4 1.5 1.5 1.4 0.7 1.6 1.4 1.4 1.9 4.8 11.2 13.5 16.3 12.6 15.4 14.0 15.3 24.7 20.5 17.7 13.3 11.9 12.1 10.7 9.0 6.1 5.4 4.0 3.5
1.7 1.7 1.3 3.5 3.2 1.9 1.4 1.6 2.2 1.9 1.7 1.0 1.0 1.9 1.3 1.4 1.4 0.5 1.6 3.6 7.7 6.7 7.2 14.6 21.8 20.2 26.1 23.9 17.0 14.0 11.3 12.5 13.0 9.1 6.9 6.2 4.7 3.9
7.8 7.6 7.3 5.2 6.1 3.8 3.9 4.7 4.3 5.6 5.2 3.7 5.0 6.9 10.5 7.7 9.4 7.2 8.6 9.0 8.8 11.1 12.3 11.6 18.2 15.7 16.9 17.1 14.3 10.9 9.4 8.3 7.5 9.3 11.3 7.0 6.6 9.3
12.4 11.8 11.2 11.2 11.2 11.4 12.6 12.4 11.4 12.9 13.7 17.5 24.8 24.7 23.4 21.4 19.8 16.8 14.3 13.1 13.6 10.6 11.9 12.0 11.1 11.8 11.9 14.3 11.9 9.7 12.1 9.2 6.2 5.9 8.0 9.1 10.3 10.0
9.1 8.8 9.2 10.9 9.7 13.5 15.4 12.9 15.7 24.2 26.0 29.8 29.3 30.8 27.5 25.8 24.6 21.0 20.4 20.2 20.6 20.1 16.6 14.5 13.8 15.3 18.9 16.7 15.8 15.7 12.8 13.6 10.0 9.6 10.9 12.6 13.5 12.6
10.3 17.4 24.3 19.5 20.6 22.1 23.5 23.5 23.3 23.6 24.9 24.2 23.6 23.0 22.0 20.7 19.6 15.9 15.0 13.7 16.0 13.5 13.8 14.3 12.1 11.4 10.5 12.2 16.5 13.7 13.3 12.6 11.0 12.8 11.8 15.3 14.3 13.3
20.4 22.8 23.3 22.3 20.1 19.9 20.1 19.7 18.2 16.5 15.0 13.3 12.7 12.0 12.0 11.0 10.1 8.3 7.7 9.0 9.1 7.5 7.0 7.2 8.8 10.6 11.0 9.3 7.0 10.3 9.2 8.7 8.5 8.2 8.4 12.9 14.2 15.0
16.9 13.7 15.7 14.9 12.9 10.8 9.9 9.4 11.5 10.1 6.4 7.5 7.6 6.4 4.6 4.5 5.3 4.4 4.0 3.9 5.0 4.0 3.2 4.1 5.2 6.9 9.3 9.5 6.2 4.1 7.0 5.4 5.9 6.7 5.2 6.6 10.6 10.7
9.6 8.3 8.6 7.3 6.4 6.0 5.6 5.7 6.8 5.8 5.5 3.8 3.9 3.5 4.1 4.4 4.2 3.5 2.7 3.6 2.9 2.5 2.8 2.1 1.6 2.6 7.1 10.8 9.8 3.7 3.0 7.8 4.9 4.4 4.6 5.5 5.0 6.1
6.9 6.3 5.5 5.4 6.3 6.0 5.1 4.9 6.3 6.8 4.3 7.4 5.6 6.6 7.3 7.5 5.8 3.9 5.4 5.3 5.3 4.7 3.5 1.4 0.3 1.3 3.1 5.1 9.9 4.6 2.8 2.2 2.1 2.4 4.3 6.4 5.2 6.4
6.4 6.1 4.5 5.2 4.4 4.6 5.4 5.2 5.4 5.9 6.7 6.9 5.3 4.3 5.1 4.7 5.4 3.8 4.0 4.5 3.6 3.2 1.9 1.6 1.8 2.9 4.3 3.8 4.5 4.4 2.5 4.7 2.7 1.7 2.5 4.1 8.8 12.4
5.4 4.5 4.5 4.4 3.8 4.1 4.4 4.9 4.3 3.9 4.5 6.0 4.6 4.0 4.7 5.6 4.1 4.1 3.9 3.7 4.1 3.8 3.7 5.1 3.8 3.0 2.9 2.6 4.1 5.7 3.2 5.0 4.3 5.9 6.0 3.5 3.6 2.4

GFSNE_prec_kuchsnow_246.txt.gz
Snowfall_Accumulation
0.0 0.1 0.0 0.0 0.0 0.1 0.1 0.3 3.2 4.4 0.4 0.0 0.0 0.0 0.0 0.0 0.0 0.0 0.0 0.0 0.0 0.0 0.0 0.0 0.0 0.0 0.0 0.0 0.0 0.0 0.0 0.0 0.0 0.0 0.0 0.0 0.0 0.0
0.0 0.0 0.0 0.0 0.0 0.0 0.0 0.1 0.4 1.4 1.4 0.0 0.0 0.0 0.0 0.0 0.0 0.0 0.0 0.0 0.0 0.0 0.0 0.0 0.0 0.0 0.0 0.0 0.0 0.0 0.0 0.0 0.0 0.0 0.0 0.0 0.0 0.0
0.2 0.3 0.2 0.0 0.1 0.0 0.0 0.1 0.1 0.3 0.5 0.0 0.0 0.0 0.0 0.0 0.0 0.0 0.0 0.0 0.0 0.0 0.0 0.0 0.0 0.0 0.0 0.0 0.0 0.0 0.0 0.0 0.0 0.0 0.0 0.0 0.0 0.0
0.5 0.9 1.5 0.8 1.1 0.3 0.2 0.1 0.2 0.2 0.4 0.1 0.4 0.2 0.0 0.0 0.0 0.0 0.0 0.0 0.0 0.0 0.0 0.0 0.1 0.0 0.0 0.0 0.0 0.0 0.1 0.0 0.0 0.0 0.0 0.0 0.0 0.0
3.7 2.5 2.4 1.8 3.6 3.1 2.0 1.1 0.3 0.6 0.9 0.2 0.2 0.0 0.5 0.2 0.1 0.4 0.2 0.1 0.0 0.0 0.0 0.0 0.0 0.0 0.0 0.0 0.0 0.0 0.0 0.1 0.0 0.1 0.1 0.0 0.0 0.0
2.3 2.6 2.9 1.8 4.5 4.7 4.6 5.3 4.0 2.4 1.6 1.6 0.5 0.7 0.8 0.9 1.1 1.1 0.7 0.6 0.4 0.2 0.1 0.0 0.1 0.0 0.0 0.0 0.1 0.0 0.0 0.0 0.1 0.1 0.1 0.1 0.0 0.0
0.4 0.4 0.6 0.4 1.0 2.1 3.4 4.6 3.1 5.4 4.9 3.9 2.4 1.0 2.1 1.1 2.9 3.8 2.6 2.2 1.0 1.5 0.4 0.4 0.0 0.0 0.4 0.2 0.0 0.1 0.0 0.1 0.1 0.1 0.1 0.1 0.0 0.0
5.7 3.3 1.7 0.3 2.0 0.5 0.6 1.9 3.3 5.8 5.9 5.5 6.4 6.4 4.9 4.0 2.6 5.7 6.2 4.4 8.1 4.1 3.9 2.3 0.4 0.6 0.5 1.1 0.6 0.3 0.1 0.2 0.2 0.1 0.1 0.0 0.0 0.2
7.2 7.9 6.1 6.2 4.0 2.5 2.9 1.7 1.5 1.3 4.2 5.3 5.3 6.0 7.6 7.5 6.6 4.6 5.8 9.5 9.0 4.6 4.4 8.5 3.4 2.4 1.6 1.3 1.5 0.3 0.6 0.1 0.2 0.2 0.3 0.1 0.0 0.0
3.7 3.2 1.9 1.7 3.3 2.4 4.3 4.3 2.6 2.7 3.4 5.6 8.4 8.4 9.0 9.5 7.8 8.3 5.8 5.9 10.5 10.2 5.7 11.2 9.5 13.3 8.3 8.7 2.1 1.5 1.9 0.6 0.9 1.0 0.3 0.3 0.3 0.0
1.1 1.0 1.0 0.9 0.7 1.3 1.1 1.0 1.0 1.3 1.0 1.8 3.0 3.1 4.6 3.4 5.5 8.0 16.3 17.3 17.7 13.4 8.9 11.4 11.8 14.0 13.1 9.6 10.4 5.3 5.5 5.9 6.1 2.1 2.3 2.5 2.6 2.6
1.1 0.7 0.4 0.9 1.6 1.8 2.5 2.0 2.2 1.4 1.5 1.5 1.4 0.7 1.6 1.4 1.4 1.9 4.8 11.2 13.5 16.3 12.6 15.4 14.0 15.3 24.7 20.5 17.7 13.3 11.9 12.1 10.7 9.0 6.1 5.4 4.0 3.5
1.7 1.7 1.3 3.5 3.2 1.9 1.4 1.6 2.2 1.9 1.7 1.0 1.0 1.9 1.3 1.4 1.4 0.5 1.6 3.6 7.7 6.7 7.2 14.6 21.8 20.2 26.1 23.9 17.0 14.0 11.3 12.5 13.0 9.1 6.9 6.2 4.7 3.9
7.8 7.6 7.3 5.2 6.1 3.8 3.9 4.7 4.3 5.6 5.2 3.7 5.0 6.9 10.5 7.7 9.4 7.2 8.6 9.0 8.8 11.1 12.3 11.6 18.2 15.7 16.9 17.1 14.3 10.9 9.4 8.3 7.5 9.3 11.3 7.0 6.6 9.3
12.4 11.8 11.2 11.2 11.2 11.4 12.6 12.4 11.4 12.9 13.7 17.5 24.8 24.7 23.4 21.4 19.8 16.8 14.3 13.1 13.6 10.6 11.9 12.0 11.1 11.8 11.9 14.3 11.9 9.7 12.1 9.2 6.2 5.9 8.0 9.1 10.3 10.0
9.1 8.8 9.2 10.9 9.7 13.5 15.4 12.9 15.7 24.2 26.0 29.8 29.3 30.8 27.5 25.8 24.6 21.0 20.4 20.2 20.6 20.1 16.6 14.5 13.8 15.3 18.9 16.7 15.8 15.7 12.8 13.6 10.0 9.6 10.9 12.6 13.5 12.6
10.3 17.4 24.3 19.5 20.6 22.1 23.5 23.5 23.3 23.6 24.9 24.2 23.6 23.0 22.0 20.7 19.6 15.9 15.0 13.7 16.0 13.5 13.8 14.3 12.1 11.4 10.5 12.2 16.5 13.7 13.3 12.6 11.0 12.8 11.8 15.3 14.3 13.3
20.4 22.8 23.3 22.3 20.1 19.9 20.1 19.7 18.2 16.5 15.0 13.3 12.7 12.0 12.0 11.0 10.1 8.3 7.7 9.0 9.1 7.5 7.0 7.2 8.8 10.6 11.0 9.3 7.0 10.3 9.2 8.7 8.5 8.2 8.4 12.9 14.2 15.0
16.9 13.7 15.7 14.9 12.9 10.8 9.9 9.4 11.5 10.1 6.4 7.5 7.6 6.4 4.6 4.5 5.3 4.4 4.0 3.9 5.0 4.0 3.2 4.1 5.2 6.9 9.3 9.5 6.2 4.1 7.0 5.4 5.9 6.7 5.2 6.6 10.6 10.7
9.6 8.3 8.6 7.3 6.4 6.0 5.6 5.7 6.8 5.8 5.5 3.8 3.9 3.5 4.1 4.4 4.2 3.5 2.7 3.6 2.9 2.5 2.8 2.1 1.6 2.6 7.1 10.8 9.8 3.7 3.0 7.8 4.9 4.4 4.6 5.5 5.0 6.1
6.9 6.3 5.5 5.4 6.3 6.0 5.1 4.9 6.3 6.8 4.3 7.4 5.6 6.6 7.3 7.5 5.8 3.9 5.4 5.3 5.3 4.7 3.5 1.4 0.3 1.3 3.1 5.1 9.9 4.6 2.8 2.2 2.1 2.4 4.3 6.4 5.2 6.4
6.4 6.1 4.5 5.2 4.4 4.6 5.4 5.2 5.4 5.9 6.7 6.9 5.3 4.3 5.1 4.7 5.4 3.8 4.0 4.5 3.6 3.2 1.9 1.6 1.8 2.9 4.3 3.8 4.5 4.4 2.5 4.7 2.7 1.7 2.5 4.1 8.8 12.4
5.4 4.5 4.5 4.4 3.8 4.1 4.4 4.9 4.3 3.9 4.5 6.0 4.6 4.0 4.7 5.6 4.1 4.1 3.9 3.7 4.1 3.8 3.7 5.1 3.8 3.0 2.9 2.6 4.1 5.7 3.2 5.0 4.3 6.2 6.1 3.5 3.6 2.4

GFSNE_prec_kuchsnow_249.txt.gz
Snowfall_Accumulation
0.0 0.1 0.0 0.0 0.0 0.1 0.1 0.3 3.2 4.4 0.4 0.0 0.0 0.0 0.0 0.0 0.0 0.0 0.0 0.0 0.0 0.0 0.0 0.0 0.0 0.0 0.0 0.0 0.0 0.0 0.0 0.0 0.0 0.0 0.0 0.0 0.0 0.0
0.0 0.0 0.0 0.0 0.0 0.0 0.0 0.1 0.4 1.4 1.4 0.0 0.0 0.0 0.0 0.0 0.0 0.0 0.0 0.0 0.0 0.0 0.0 0.0 0.0 0.0 0.0 0.0 0.0 0.0 0.0 0.0 0.0 0.0 0.0 0.0 0.0 0.0
0.2 0.3 0.2 0.0 0.1 0.0 0.0 0.1 0.1 0.3 0.5 0.0 0.0 0.0 0.0 0.0 0.0 0.0 0.0 0.0 0.0 0.0 0.0 0.0 0.0 0.0 0.0 0.0 0.0 0.0 0.0 0.0 0.0 0.0 0.0 0.0 0.0 0.0
0.5 0.9 1.5 0.8 1.1 0.3 0.2 0.1 0.2 0.2 0.4 0.1 0.4 0.2 0.0 0.0 0.0 0.0 0.0 0.0 0.0 0.0 0.0 0.0 0.1 0.0 0.0 0.0 0.0 0.0 0.1 0.0 0.0 0.0 0.0 0.0 0.0 0.0
3.7 2.5 2.4 1.8 3.6 3.1 2.0 1.1 0.3 0.6 0.9 0.2 0.2 0.0 0.5 0.2 0.1 0.4 0.2 0.1 0.0 0.0 0.0 0.0 0.0 0.0 0.0 0.0 0.0 0.0 0.0 0.1 0.0 0.1 0.1 0.0 0.0 0.0
2.3 2.6 2.9 1.8 4.5 4.7 4.6 5.3 4.0 2.4 1.6 1.6 0.5 0.7 0.8 0.9 1.1 1.1 0.7 0.6 0.4 0.2 0.1 0.0 0.1 0.0 0.0 0.0 0.1 0.0 0.0 0.0 0.1 0.1 0.1 0.1 0.0 0.0
0.4 0.4 0.6 0.4 1.0 2.1 3.4 4.6 3.1 5.4 4.9 3.9 2.4 1.0 2.1 1.1 2.9 3.8 2.6 2.2 1.0 1.5 0.4 0.4 0.0 0.0 0.4 0.2 0.0 0.1 0.0 0.1 0.1 0.1 0.1 0.1 0.0 0.0
5.7 3.3 1.7 0.3 2.0 0.5 0.6 1.9 3.3 5.8 5.9 5.5 6.4 6.4 4.9 4.0 2.6 5.7 6.2 4.4 8.1 4.1 3.9 2.3 0.4 0.6 0.5 1.1 0.6 0.3 0.1 0.2 0.2 0.1 0.1 0.0 0.0 0.2
7.2 7.9 6.1 6.2 4.0 2.5 2.9 1.7 1.5 1.3 4.2 5.3 5.3 6.0 7.6 7.5 6.6 4.6 5.8 9.5 9.0 4.6 4.4 8.5 3.4 2.4 1.6 1.3 1.5 0.3 0.6 0.1 0.2 0.2 0.3 0.1 0.0 0.0
3.7 3.2 1.9 1.7 3.3 2.4 4.3 4.3 2.6 2.7 3.4 5.6 8.4 8.4 9.0 9.5 7.8 8.3 5.8 5.9 10.5 10.2 5.7 11.2 9.5 13.3 8.3 8.7 2.1 1.5 1.9 0.6 0.9 1.0 0.3 0.3 0.3 0.0
1.1 1.0 1.0 0.9 0.7 1.3 1.1 1.0 1.0 1.3 1.0 1.8 3.0 3.1 4.6 3.4 5.5 8.0 16.3 17.3 17.7 13.4 8.9 11.4 11.8 14.0 13.1 9.6 10.4 5.3 5.5 5.9 6.1 2.1 2.3 2.5 2.6 2.6
1.1 0.7 0.4 0.9 1.6 1.8 2.5 2.0 2.2 1.4 1.5 1.5 1.4 0.7 1.6 1.4 1.4 1.9 4.8 11.2 13.5 16.3 12.6 15.4 14.0 15.3 24.7 20.5 17.7 13.3 11.9 12.1 10.7 9.0 6.1 5.4 4.0 3.5
1.7 1.7 1.3 3.5 3.2 1.9 1.4 1.6 2.2 1.9 1.7 1.0 1.0 1.9 1.3 1.4 1.4 0.5 1.6 3.6 7.7 6.7 7.2 14.6 21.8 20.2 26.1 23.9 17.0 14.0 11.3 12.5 13.0 9.1 6.9 6.2 4.7 3.9
10.1 7.6 7.3 5.2 6.1 3.8 3.9 4.7 4.3 5.6 5.2 3.7 5.0 6.9 10.5 7.7 9.4 7.2 8.6 9.0 8.8 11.1 12.3 11.6 18.2 15.7 16.9 17.1 14.3 10.9 9.4 8.3 7.5 9.3 11.3 7.0 6.6 9.3
12.4 11.8 12.9 11.2 11.2 11.4 12.6 12.4 11.4 12.9 13.7 17.5 24.8 24.7 23.4 21.4 19.8 16.8 14.3 13.1 13.6 10.6 11.9 12.0 11.1 11.8 11.9 14.3 11.9 9.7 12.1 9.2 6.2 5.9 8.0 9.1 10.3 10.0
9.1 8.8 9.8 12.2 9.7 13.5 15.4 12.9 15.7 24.2 26.0 29.8 29.3 30.8 27.5 25.8 24.6 21.0 20.4 20.2 20.6 20.1 16.6 14.5 13.8 15.3 18.9 16.7 15.8 15.7 12.8 13.6 10.0 9.6 10.9 12.6 13.5 12.6
10.3 17.4 24.3 19.7 21.0 22.1 23.5 23.5 23.3 23.6 24.9 24.2 23.6 23.0 22.0 20.7 19.6 15.9 15.0 13.7 16.0 13.5 13.8 14.3 12.1 11.4 10.5 12.2 16.5 13.7 13.3 12.6 11.0 12.8 11.8 15.3 14.3 13.3
20.4 22.8 23.3 22.3 20.2 19.9 20.1 19.7 18.2 16.5 15.0 13.3 12.7 12.0 12.0 11.0 10.1 8.3 7.7 9.0 9.1 7.5 7.0 7.2 8.8 10.6 11.0 9.3 7.0 10.3 9.2 8.7 8.5 8.2 8.4 12.9 14.2 15.0
16.9 13.7 15.7 14.9 12.9 10.8 9.9 9.4 11.5 10.1 6.4 7.5 7.6 6.4 4.6 4.5 5.3 4.4 4.0 3.9 5.0 4.0 3.2 4.1 5.2 6.9 9.3 9.5 6.2 4.1 7.0 5.4 5.9 6.7 5.2 6.6 10.6 10.7
9.6 8.3 8.6 7.3 6.4 6.0 5.6 5.7 6.8 5.8 5.5 3.8 3.9 3.5 4.1 4.4 4.2 3.5 2.7 3.6 2.9 2.5 2.8 2.1 1.6 2.6 7.1 10.8 9.8 3.7 3.0 7.8 4.9 4.4 4.6 5.5 5.0 6.1
6.9 6.3 5.5 5.4 6.3 6.0 5.1 4.9 6.3 6.8 4.3 7.4 5.6 6.6 7.3 7.5 5.8 3.9 5.4 5.3 5.3 4.7 3.5 1.4 0.3 1.3 3.1 5.1 9.9 4.6 2.8 2.2 2.1 2.4 4.3 6.4 5.2 6.4
6.4 6.1 4.5 5.2 4.4 4.6 5.4 5.2 5.4 5.9 6.7 6.9 5.3 4.3 5.1 4.7 5.4 3.8 4.0 4.5 3.6 3.2 1.9 1.6 1.8 2.9 4.3 3.8 4.5 4.4 2.5 4.7 2.7 1.7 2.5 4.1 8.8 12.4
5.4 4.5 4.5 4.4 3.9 4.1 4.4 4.9 4.3 3.9 4.5 6.0 4.6 4.0 4.7 5.6 4.1 4.1 3.9 3.7 4.1 3.8 3.7 5.1 3.8 3.0 2.9 2.6 4.1 5.7 3.2 5.0 4.3 6.2 6.1 3.5 3.6 2.4

GFSNE_prec_kuchsnow_252.txt.gz
Snowfall_Accumulation
0.0 0.1 0.0 0.0 0.0 0.1 0.1 0.3 3.2 4.4 0.4 0.0 0.0 0.0 0.0 0.0 0.0 0.0 0.0 0.0 0.0 0.0 0.0 0.0 0.0 0.0 0.0 0.0 0.0 0.0 0.0 0.0 0.0 0.0 0.0 0.0 0.0 0.0
0.0 0.0 0.0 0.0 0.0 0.0 0.0 0.1 0.4 1.4 1.4 0.0 0.0 0.0 0.0 0.0 0.0 0.0 0.0 0.0 0.0 0.0 0.0 0.0 0.0 0.0 0.0 0.0 0.0 0.0 0.0 0.0 0.0 0.0 0.0 0.0 0.0 0.0
0.2 0.3 0.2 0.0 0.1 0.0 0.0 0.1 0.1 0.3 0.5 0.0 0.0 0.0 0.0 0.0 0.0 0.0 0.0 0.0 0.0 0.0 0.0 0.0 0.0 0.0 0.0 0.0 0.0 0.0 0.0 0.0 0.0 0.0 0.0 0.0 0.0 0.0
0.5 0.9 1.5 0.8 1.1 0.3 0.2 0.1 0.2 0.2 0.4 0.1 0.4 0.2 0.0 0.0 0.0 0.0 0.0 0.0 0.0 0.0 0.0 0.0 0.1 0.0 0.0 0.0 0.0 0.0 0.1 0.0 0.0 0.0 0.0 0.0 0.0 0.0
3.7 2.5 2.4 1.8 3.6 3.1 2.0 1.1 0.3 0.6 0.9 0.2 0.2 0.0 0.5 0.2 0.1 0.4 0.2 0.1 0.0 0.0 0.0 0.0 0.0 0.0 0.0 0.0 0.0 0.0 0.0 0.1 0.0 0.1 0.1 0.0 0.0 0.0
2.3 2.6 2.9 1.8 4.5 4.7 4.6 5.3 4.0 2.4 1.6 1.6 0.5 0.7 0.8 0.9 1.1 1.1 0.7 0.6 0.4 0.2 0.1 0.0 0.1 0.0 0.0 0.0 0.1 0.0 0.0 0.0 0.1 0.1 0.1 0.1 0.0 0.0
0.4 0.4 0.6 0.4 1.0 2.1 3.4 4.6 3.1 5.4 4.9 3.9 2.4 1.0 2.1 1.1 2.9 3.8 2.6 2.2 1.0 1.5 0.4 0.4 0.0 0.0 0.4 0.2 0.0 0.1 0.0 0.1 0.1 0.1 0.1 0.1 0.0 0.0
5.7 3.3 1.7 0.3 2.0 0.5 0.6 1.9 3.3 5.8 5.9 5.5 6.4 6.4 4.9 4.0 2.6 5.7 6.2 4.4 8.1 4.1 3.9 2.3 0.4 0.6 0.5 1.1 0.6 0.3 0.1 0.2 0.2 0.1 0.1 0.0 0.0 0.2
7.2 7.9 6.1 6.2 4.0 2.5 2.9 1.7 1.5 1.3 4.2 5.3 5.3 6.0 7.6 7.5 6.6 4.6 5.8 9.5 9.0 4.6 4.4 8.5 3.4 2.4 1.6 1.3 1.5 0.3 0.6 0.1 0.2 0.2 0.3 0.1 0.0 0.0
3.7 3.2 1.9 1.7 3.3 2.4 4.3 4.3 2.6 2.7 3.4 5.6 8.4 8.4 9.0 9.5 7.8 8.3 5.8 5.9 10.5 10.2 5.7 11.2 9.5 13.3 8.3 8.7 2.1 1.5 1.9 0.6 0.9 1.0 0.3 0.3 0.3 0.0
1.1 1.0 1.0 0.9 0.7 1.3 1.1 1.0 1.0 1.3 1.0 1.8 3.0 3.1 4.6 3.4 5.5 8.0 16.3 17.3 17.7 13.4 8.9 11.4 11.8 14.0 13.1 9.6 10.4 5.3 5.5 5.9 6.1 2.1 2.3 2.5 2.6 2.6
1.1 0.7 0.4 0.9 1.6 1.8 2.5 2.0 2.2 1.4 1.5 1.5 1.4 0.7 1.6 1.4 1.4 1.9 4.8 11.2 13.5 16.3 12.6 15.4 14.0 15.3 24.7 20.5 17.7 13.3 11.9 12.1 10.7 9.0 6.1 5.4 4.0 3.5
1.7 1.7 1.3 3.5 3.2 1.9 1.4 1.6 2.2 1.9 1.7 1.0 1.0 1.9 1.3 1.4 1.4 0.5 1.6 3.6 7.7 6.7 7.2 14.6 21.8 20.2 26.1 23.9 17.0 14.0 11.3 12.5 13.0 9.1 6.9 6.2 4.7 3.9
10.1 7.6 7.3 5.2 6.1 3.8 3.9 4.7 4.3 5.6 5.2 3.7 5.0 6.9 10.5 7.7 9.4 7.2 8.6 9.0 8.8 11.1 12.3 11.6 18.2 15.7 16.9 17.1 14.3 10.9 9.4 8.3 7.5 9.3 11.3 7.0 6.6 9.3
12.4 11.8 12.9 11.2 11.2 11.4 12.6 12.4 11.4 12.9 13.7 17.5 24.8 24.7 23.4 21.4 19.8 16.8 14.3 13.1 13.6 10.6 11.9 12.0 11.1 11.8 11.9 14.3 11.9 9.7 12.1 9.2 6.2 5.9 8.0 9.1 10.3 10.0
9.1 8.8 9.8 12.2 9.7 13.5 15.4 12.9 15.7 24.2 26.0 29.8 29.3 30.8 27.5 25.8 24.6 21.0 20.4 20.2 20.6 20.1 16.6 14.5 13.8 15.3 18.9 16.7 15.8 15.7 12.8 13.6 10.0 9.6 10.9 12.6 13.5 12.6
10.3 17.4 24.3 19.7 21.0 22.1 23.5 23.5 23.3 23.6 24.9 24.2 23.6 23.0 22.0 20.7 19.6 15.9 15.0 13.7 16.0 13.5 13.8 14.3 12.1 11.4 10.5 12.2 16.5 13.7 13.3 12.6 11.0 12.8 11.8 15.3 14.3 13.3
20.4 22.8 23.3 22.3 20.2 19.9 20.1 19.7 18.2 16.5 15.0 13.3 12.7 12.0 12.0 11.0 10.1 8.3 7.7 9.0 9.1 7.5 7.0 7.2 8.8 10.6 11.0 9.3 7.0 10.3 9.2 8.7 8.5 8.2 8.4 12.9 14.2 15.0
16.9 13.7 15.7 14.9 12.9 10.8 9.9 9.4 11.5 10.1 6.4 7.5 7.6 6.4 4.6 4.5 5.3 4.4 4.0 3.9 5.0 4.0 3.2 4.1 5.2 6.9 9.3 9.5 6.2 4.1 7.0 5.4 5.9 6.7 5.2 6.6 10.6 10.7
9.6 8.3 8.6 7.3 6.4 6.0 5.6 5.7 6.8 5.8 5.5 3.8 3.9 3.5 4.1 4.4 4.2 3.5 2.7 3.6 2.9 2.5 2.8 2.1 1.6 2.6 7.1 10.8 9.8 3.7 3.0 7.8 4.9 4.4 4.6 5.5 5.0 6.1
6.9 6.3 5.5 5.4 6.3 6.0 5.1 4.9 6.3 6.8 4.3 7.4 5.6 6.6 7.3 7.5 5.8 3.9 5.4 5.3 5.3 4.7 3.5 1.4 0.3 1.3 3.1 5.1 9.9 4.6 2.8 2.2 2.1 2.4 4.3 6.4 5.2 6.4
6.4 6.2 4.6 5.2 4.4 4.6 5.4 5.2 5.4 5.9 6.7 6.9 5.3 4.3 5.1 4.7 5.4 3.8 4.0 4.5 3.6 3.2 1.9 1.6 1.8 2.9 4.3 3.8 4.5 4.4 2.5 4.7 2.7 1.7 2.5 4.1 8.8 12.4
5.5 4.6 4.6 4.4 3.9 4.1 4.4 4.9 4.3 3.9 4.5 6.0 4.6 4.0 4.7 5.6 4.1 4.1 3.9 3.7 4.1 3.8 3.7 5.1 3.8 3.0 2.9 2.6 4.1 5.7 3.2 5.0 4.3 6.2 6.1 3.5 3.6 2.4

GFSNE_prec_kuchsnow_255.txt.gz
Snowfall_Accumulation
0.0 0.1 0.0 0.0 0.0 0.1 0.1 0.3 3.2 4.4 0.4 0.0 0.0 0.0 0.0 0.0 0.0 0.0 0.0 0.0 0.0 0.0 0.0 0.0 0.0 0.0 0.0 0.0 0.0 0.0 0.0 0.0 0.0 0.0 0.0 0.0 0.0 0.0
0.0 0.0 0.0 0.0 0.0 0.0 0.0 0.1 0.4 1.4 1.4 0.0 0.0 0.0 0.0 0.0 0.0 0.0 0.0 0.0 0.0 0.0 0.0 0.0 0.0 0.0 0.0 0.0 0.0 0.0 0.0 0.0 0.0 0.0 0.0 0.0 0.0 0.0
0.2 0.3 0.2 0.0 0.1 0.0 0.0 0.1 0.1 0.3 0.5 0.0 0.0 0.0 0.0 0.0 0.0 0.0 0.0 0.0 0.0 0.0 0.0 0.0 0.0 0.0 0.0 0.0 0.0 0.0 0.0 0.0 0.0 0.0 0.0 0.0 0.0 0.0
0.5 0.9 1.5 0.8 1.1 0.3 0.2 0.1 0.2 0.2 0.4 0.1 0.4 0.2 0.0 0.0 0.0 0.0 0.0 0.0 0.0 0.0 0.0 0.0 0.1 0.0 0.0 0.0 0.0 0.0 0.1 0.0 0.0 0.0 0.0 0.0 0.0 0.0
3.7 2.5 2.4 1.8 3.6 3.1 2.0 1.1 0.3 0.6 0.9 0.2 0.2 0.0 0.5 0.2 0.1 0.4 0.2 0.1 0.0 0.0 0.0 0.0 0.0 0.0 0.0 0.0 0.0 0.0 0.0 0.1 0.0 0.1 0.1 0.0 0.0 0.0
2.3 2.6 2.9 1.8 4.5 4.7 4.6 5.3 4.0 2.4 1.6 1.6 0.5 0.7 0.8 0.9 1.1 1.1 0.7 0.6 0.4 0.2 0.1 0.0 0.1 0.0 0.0 0.0 0.1 0.0 0.0 0.0 0.1 0.1 0.1 0.1 0.0 0.0
0.4 0.4 0.6 0.4 1.0 2.1 3.4 4.6 3.1 5.4 4.9 3.9 2.4 1.0 2.1 1.1 2.9 3.8 2.6 2.2 1.0 1.5 0.4 0.4 0.0 0.0 0.4 0.2 0.0 0.1 0.0 0.1 0.1 0.1 0.1 0.1 0.0 0.0
5.7 3.3 1.7 0.3 2.0 0.5 0.6 1.9 3.3 5.8 5.9 5.5 6.4 6.4 4.9 4.0 2.6 5.7 6.2 4.4 8.1 4.1 3.9 2.3 0.4 0.6 0.5 1.1 0.6 0.3 0.1 0.2 0.2 0.1 0.1 0.0 0.0 0.2
7.2 7.9 6.1 6.2 4.0 2.5 2.9 1.7 1.5 1.3 4.2 5.3 5.3 6.0 7.6 7.5 6.6 4.6 5.8 9.5 9.0 4.6 4.4 8.5 3.4 2.4 1.6 1.3 1.5 0.3 0.6 0.1 0.2 0.2 0.3 0.1 0.0 0.0
3.7 3.2 1.9 1.7 3.3 2.4 4.3 4.3 2.6 2.7 3.4 5.6 8.4 8.4 9.0 9.5 7.8 8.3 5.8 5.9 10.5 10.2 5.7 11.2 9.5 13.3 8.3 8.7 2.1 1.5 1.9 0.6 0.9 1.0 0.3 0.3 0.3 0.0
1.1 1.0 1.0 0.9 0.7 1.3 1.1 1.0 1.0 1.3 1.0 1.8 3.0 3.1 4.6 3.4 5.5 8.0 16.3 17.3 17.7 13.4 8.9 11.4 11.8 14.0 13.1 9.6 10.4 5.3 5.5 5.9 6.1 2.1 2.3 2.5 2.6 2.6
1.1 0.7 0.4 0.9 1.6 1.8 2.5 2.0 2.2 1.4 1.5 1.5 1.4 0.7 1.6 1.4 1.4 1.9 4.8 11.2 13.5 16.3 12.6 15.4 14.0 15.3 24.7 20.5 17.7 13.3 11.9 12.1 10.7 9.0 6.1 5.4 4.0 3.5
1.7 1.7 1.3 3.5 3.2 1.9 1.4 1.6 2.2 1.9 1.7 1.0 1.0 1.9 1.3 1.4 1.4 0.5 1.6 3.6 7.7 6.7 7.2 14.6 21.8 20.2 26.1 23.9 17.0 14.0 11.3 12.5 13.0 9.1 6.9 6.2 4.7 3.9
10.1 7.6 7.3 5.2 6.1 3.8 3.9 4.7 4.3 5.6 5.2 3.7 5.0 6.9 10.5 7.7 9.4 7.2 8.6 9.0 8.8 11.1 12.3 11.6 18.2 15.7 16.9 17.1 14.3 10.9 9.4 8.3 7.5 9.3 11.3 7.0 6.6 9.3
12.4 11.8 12.9 11.2 11.2 11.4 12.6 12.4 11.4 12.9 13.7 17.5 24.8 24.7 23.4 21.4 19.8 16.8 14.3 13.1 13.6 10.6 11.9 12.0 11.1 11.8 11.9 14.3 11.9 9.7 12.1 9.2 6.2 5.9 8.0 9.1 10.3 10.0
9.1 8.8 9.8 12.2 9.7 13.5 15.4 12.9 15.7 24.2 26.0 29.8 29.3 30.8 27.5 25.8 24.6 21.0 20.4 20.2 20.6 20.1 16.6 14.5 13.8 15.3 18.9 16.7 15.8 15.7 12.8 13.6 10.0 9.6 10.9 12.6 13.5 12.6
10.3 17.4 24.3 19.7 21.0 22.1 23.5 23.5 23.3 23.6 24.9 24.2 23.6 23.0 22.0 20.7 19.6 15.9 15.0 13.7 16.0 13.5 13.8 14.3 12.1 11.4 10.5 12.2 16.5 13.7 13.3 12.6 11.0 12.8 11.8 15.3 14.3 13.3
20.4 22.8 23.3 22.3 20.2 19.9 20.1 19.7 18.2 16.5 15.0 13.3 12.7 12.0 12.0 11.0 10.1 8.3 7.7 9.0 9.1 7.5 7.0 7.2 8.8 10.6 11.0 9.3 7.0 10.3 9.2 8.7 8.5 8.2 8.4 12.9 14.2 15.0
16.9 13.7 15.7 14.9 12.9 10.8 9.9 9.4 11.5 10.1 6.4 7.5 7.6 6.4 4.6 4.5 5.3 4.4 4.0 3.9 5.0 4.0 3.2 4.1 5.2 6.9 9.3 9.5 6.2 4.1 7.0 5.4 5.9 6.7 5.2 6.6 10.6 10.7
9.6 8.3 8.7 7.3 6.4 6.0 5.6 5.7 6.8 5.8 5.5 3.8 3.9 3.5 4.1 4.4 4.2 3.5 2.7 3.6 2.9 2.5 2.8 2.1 1.6 2.6 7.1 10.8 9.8 3.7 3.0 7.8 4.9 4.4 4.6 5.5 5.0 6.1
7.0 6.3 5.5 5.4 6.3 6.0 5.1 4.9 6.3 6.8 4.3 7.4 5.6 6.6 7.3 7.5 5.8 3.9 5.4 5.3 5.3 4.7 3.5 1.4 0.3 1.3 3.1 5.1 9.9 4.6 2.8 2.2 2.1 2.4 4.3 6.4 5.2 6.4
6.5 6.3 4.6 5.2 4.4 4.6 5.4 5.2 5.4 5.9 6.7 6.9 5.3 4.3 5.1 4.7 5.4 3.8 4.0 4.5 3.6 3.2 1.9 1.6 1.8 2.9 4.3 3.8 4.5 4.4 2.5 4.7 2.7 1.7 2.5 4.1 8.8 12.4
5.7 4.7 4.7 4.5 3.9 4.2 4.4 4.9 4.3 3.9 4.5 6.0 4.6 4.0 4.7 5.6 4.1 4.1 3.9 3.7 4.1 3.8 3.7 5.1 3.8 3.0 2.9 2.6 4.1 5.7 3.2 5.0 4.3 6.2 6.1 3.5 3.6 2.4

GFSNE_prec_kuchsnow_261.txt.gz
Snowfall_Accumulation
0.0 0.1 0.0 0.0 0.0 0.1 0.1 0.3 3.2 4.4 0.4 0.0 0.0 0.0 0.0 0.0 0.0 0.0 0.0 0.0 0.0 0.0 0.0 0.0 0.0 0.0 0.0 0.0 0.0 0.0 0.0 0.0 0.0 0.0 0.0 0.0 0.0 0.0
0.0 0.0 0.0 0.0 0.0 0.0 0.0 0.1 0.4 1.4 1.4 0.0 0.0 0.0 0.0 0.0 0.0 0.0 0.0 0.0 0.0 0.0 0.0 0.0 0.0 0.0 0.0 0.0 0.0 0.0 0.0 0.0 0.0 0.0 0.0 0.0 0.0 0.0
0.2 0.3 0.2 0.0 0.1 0.0 0.0 0.1 0.1 0.3 0.5 0.0 0.0 0.0 0.0 0.0 0.0 0.0 0.0 0.0 0.0 0.0 0.0 0.0 0.0 0.0 0.0 0.0 0.0 0.0 0.0 0.0 0.0 0.0 0.0 0.0 0.0 0.0
0.5 0.9 1.5 0.8 1.1 0.3 0.2 0.1 0.2 0.2 0.4 0.1 0.4 0.2 0.0 0.0 0.0 0.0 0.0 0.0 0.0 0.0 0.0 0.0 0.1 0.0 0.0 0.0 0.0 0.0 0.1 0.0 0.0 0.0 0.0 0.0 0.0 0.0
3.7 2.5 2.4 1.8 3.6 3.1 2.0 1.1 0.3 0.6 0.9 0.2 0.2 0.0 0.5 0.2 0.1 0.4 0.2 0.1 0.0 0.0 0.0 0.0 0.0 0.0 0.0 0.0 0.0 0.0 0.0 0.1 0.0 0.1 0.1 0.0 0.0 0.0
2.3 2.6 2.9 1.8 4.5 4.7 4.6 5.3 4.0 2.4 1.6 1.6 0.5 0.7 0.8 0.9 1.1 1.1 0.7 0.6 0.4 0.2 0.1 0.0 0.1 0.0 0.0 0.0 0.1 0.0 0.0 0.0 0.1 0.1 0.1 0.1 0.0 0.0
0.4 0.4 0.6 0.4 1.0 2.1 3.4 4.6 3.1 5.4 4.9 3.9 2.4 1.0 2.1 1.1 2.9 3.8 2.6 2.2 1.0 1.5 0.4 0.4 0.0 0.0 0.4 0.2 0.0 0.1 0.0 0.1 0.1 0.1 0.1 0.1 0.0 0.0
5.7 3.3 1.7 0.3 2.0 0.5 0.6 1.9 3.3 5.8 5.9 5.5 6.4 6.4 4.9 4.0 2.6 5.7 6.2 4.4 8.1 4.1 3.9 2.3 0.4 0.6 0.5 1.1 0.6 0.3 0.1 0.2 0.2 0.1 0.1 0.0 0.0 0.2
7.2 7.9 6.1 6.2 4.0 2.5 2.9 1.7 1.5 1.3 4.2 5.3 5.3 6.0 7.6 7.5 6.6 4.6 5.8 9.5 9.0 4.6 4.4 8.5 3.4 2.4 1.6 1.3 1.5 0.3 0.6 0.1 0.2 0.2 0.3 0.1 0.0 0.0
3.7 3.2 1.9 1.7 3.3 2.4 4.3 4.3 2.6 2.7 3.4 5.6 8.4 8.4 9.0 9.5 7.8 8.3 5.8 5.9 10.5 10.2 5.7 11.2 9.5 13.3 8.3 8.7 2.1 1.5 1.9 0.6 0.9 1.0 0.3 0.3 0.3 0.0
1.1 1.0 1.0 0.9 0.7 1.3 1.1 1.0 1.0 1.3 1.0 1.8 3.0 3.1 4.6 3.4 5.5 8.0 16.3 17.3 17.7 13.4 8.9 11.4 11.8 14.0 13.1 9.6 10.4 5.3 5.5 5.9 6.1 2.1 2.3 2.5 2.6 2.6
1.2 0.7 0.4 0.9 1.6 1.8 2.5 2.0 2.2 1.4 1.5 1.5 1.4 0.7 1.6 1.4 1.4 1.9 4.8 11.2 13.5 16.3 12.6 15.4 14.0 15.3 24.7 20.5 17.7 13.3 11.9 12.1 10.7 9.0 6.1 5.4 4.0 3.5
1.8 1.7 1.3 3.5 3.2 1.9 1.4 1.6 2.2 1.9 1.7 1.0 1.0 1.9 1.3 1.4 1.4 0.5 1.6 3.6 7.7 6.7 7.2 14.6 21.8 20.2 26.1 23.9 17.0 14.0 11.3 12.5 13.0 9.1 6.9 6.2 4.7 3.9
10.1 7.6 7.3 5.2 6.1 3.8 3.9 4.7 4.3 5.6 5.2 3.7 5.0 6.9 10.5 7.7 9.4 7.2 8.6 9.0 8.8 11.1 12.3 11.6 18.2 15.7 16.9 17.1 14.3 10.9 9.4 8.3 7.5 9.3 11.3 7.0 6.6 9.3
12.4 11.8 12.9 11.2 11.2 11.4 12.6 12.4 11.4 12.9 13.7 17.5 24.8 24.7 23.4 21.4 19.8 16.8 14.3 13.1 13.6 10.6 11.9 12.0 11.1 11.8 11.9 14.3 11.9 9.7 12.1 9.2 6.2 5.9 8.0 9.1 10.3 10.0
9.1 8.8 9.8 12.2 9.7 13.5 15.4 12.9 15.7 24.2 26.0 29.8 29.3 30.8 27.5 25.8 24.6 21.0 20.4 20.2 20.6 20.1 16.6 14.5 13.8 15.3 18.9 16.7 15.8 15.7 12.8 13.6 10.0 9.6 10.9 12.6 13.5 12.6
10.3 17.4 24.3 19.7 21.0 22.1 23.5 23.5 23.3 23.6 24.9 24.2 23.6 23.0 22.0 20.7 19.6 15.9 15.0 13.7 16.0 13.5 13.8 14.3 12.1 11.4 10.5 12.2 16.5 13.7 13.3 12.6 11.0 12.8 11.8 15.3 14.3 13.3
20.4 22.8 23.3 22.3 20.2 19.9 20.1 19.7 18.2 16.5 15.0 13.3 12.7 12.0 12.0 11.0 10.1 8.3 7.7 9.0 9.1 7.5 7.0 7.2 8.8 10.6 11.0 9.3 7.0 10.3 9.2 8.7 8.5 8.2 8.4 12.9 14.2 15.0
16.9 13.8 15.8 15.0 12.9 10.8 10.0 9.4 11.5 10.1 6.4 7.5 7.6 6.4 4.6 4.5 5.3 4.4 4.0 3.9 5.0 4.0 3.2 4.1 5.2 6.9 9.3 9.5 6.2 4.1 7.0 5.4 5.9 6.7 5.2 6.6 10.6 10.7
9.6 8.4 8.8 7.4 6.6 6.1 5.7 5.7 6.8 5.8 5.5 3.8 3.9 3.5 4.1 4.4 4.2 3.7 3.2 3.6 2.9 2.5 2.8 2.1 1.6 2.6 7.1 10.8 9.8 3.7 3.0 7.8 4.9 4.4 4.6 5.5 5.0 6.1
7.1 6.5 5.7 5.6 6.4 6.1 5.2 4.9 6.3 6.9 4.4 7.4 5.6 6.6 7.3 7.5 5.8 3.9 5.4 5.3 6.0 5.0 3.9 1.4 0.3 1.3 3.1 5.1 9.9 4.6 2.8 2.2 2.1 2.4 4.3 6.4 5.2 6.4
6.7 6.4 4.8 5.4 4.5 4.7 5.5 5.3 5.4 6.0 6.7 6.9 5.3 4.3 5.1 4.7 5.4 3.8 4.0 4.5 3.6 3.2 1.9 1.6 1.8 2.9 4.3 3.8 4.5 4.4 2.5 4.7 2.7 1.7 2.5 4.1 8.8 12.4
5.9 5.0 4.9 4.6 4.1 4.3 4.4 5.0 4.3 3.9 4.6 6.0 4.6 4.0 4.7 5.6 4.1 4.1 3.9 3.7 4.1 3.8 3.7 5.1 3.8 3.0 2.9 2.6 4.1 5.7 3.2 5.0 4.3 6.2 6.1 3.5 3.6 2.4